Change the Weather History Date:

Tuesday, April 10, 2012

  Actual Average Record
Temperature  
Mean Temperature 32 °F -  
Max Temperature 38 °F 51 °F 80 °F (1955)
Min Temperature 26 °F 29 °F 16 °F (1960)
Degree Days  
Heating Degree Days 33    
Moisture  
Dew Point 15 °F    
Average Humidity 49    
Maximum Humidity 64    
Minimum Humidity 38    
Precipitation  
Precipitation 0.00 in - - ()
Sea Level Pressure  
Sea Level Pressure 30.09 in    
Wind  
Wind Speed 8 mph (NW)    
Max Wind Speed 15 mph    
Max Gust Speed 23 mph    
Visibility 10 miles    
Events      
Averages and records for this station are not official NWS values.
T = Trace of Precipitation, MM = Missing Value Source: NWS Daily Summary

Daily Weather History Graph

Daily Weather History Graph

Search for Another Location

Airport or City:

Trip Planner

Search our weather history database for the weather conditions in past years. The results will help you decide how hot, cold, wet, or windy it might be!

Date:

Astronomy

Apr. 10, 2012 Rise Set
Actual Time 6:21 AM CDT 7:37 PM CDT
Civil Twilight 5:51 AM CDT 8:07 PM CDT
Nautical Twilight 5:15 AM CDT 8:43 PM CDT
Astronomical Twilight 4:37 AM CDT 9:22 PM CDT
Moon No Moon Rise 8:57 AM CDT (4/10)
Length of Visible Light 14h 15m
Length of Day
13h 15m
Waning Gibbous, 79% of the Moon is Illuminated
Apr 10
Waning Gibbous
Apr 13
Last Quarter
Apr 21
New
Apr 29
First Quarter
May 5
Full

Hourly Weather History & Observations

Time (CDT) Temp. Windchill Dew Point Humidity Pressure Visibility Wind Dir Wind Speed Gust Speed Precip Events Conditions
12:15 AM 32.0 °F 26.4 °F 15.6 °F 51% 30.06 in 10.0 mi NW 5.8 mph - N/A   Overcast
12:35 AM 32.0 °F 24.2 °F 15.3 °F 50% 30.06 in 10.0 mi NW 9.2 mph - N/A   Overcast
12:55 AM 31.8 °F 26.2 °F 14.9 °F 50% 30.06 in 10.0 mi NW 5.8 mph - N/A   Overcast
1:15 AM 31.6 °F 24.4 °F 15.8 °F 52% 30.05 in 10.0 mi NW 8.1 mph - N/A   Overcast
1:35 AM 31.3 °F 23.9 °F 16.5 °F 54% 30.04 in 10.0 mi WNW 8.1 mph - N/A   Overcast
1:55 AM 30.7 °F 22.6 °F 16.5 °F 56% 30.05 in 10.0 mi NW 9.2 mph - N/A   Mostly Cloudy
2:15 AM 30.0 °F 21.7 °F 17.4 °F 59% 30.05 in 10.0 mi NW 9.2 mph - N/A   Mostly Cloudy
2:35 AM 29.1 °F 24.1 °F 16.7 °F 60% 30.05 in 10.0 mi WNW 4.6 mph - N/A   Scattered Clouds
2:55 AM 28.9 °F 22.8 °F 17.2 °F 62% 30.04 in 10.0 mi WNW 5.8 mph - N/A   Clear
3:15 AM 28.4 °F 23.3 °F 16.7 °F 62% 30.04 in 10.0 mi WNW 4.6 mph - N/A   Scattered Clouds
3:35 AM 28.4 °F 22.2 °F 16.9 °F 62% 30.04 in 10.0 mi WNW 5.8 mph - N/A   Mostly Cloudy
3:55 AM 28.0 °F 21.7 °F 16.5 °F 62% 30.04 in 10.0 mi West 5.8 mph - N/A   Overcast
4:15 AM 27.9 °F 21.5 °F 16.2 °F 62% 30.03 in 10.0 mi WNW 5.8 mph - N/A   Overcast
4:35 AM 27.9 °F 21.5 °F 16.2 °F 62% 30.03 in 10.0 mi WNW 5.8 mph - N/A   Overcast
4:55 AM 27.5 °F 22.2 °F 16.2 °F 62% 30.03 in 10.0 mi WNW 4.6 mph - N/A   Overcast
5:15 AM 27.5 °F 22.2 °F 16.2 °F 62% 30.04 in 10.0 mi WNW 4.6 mph - N/A   Overcast
5:35 AM 27.3 °F 20.9 °F 16.7 °F 64% 30.03 in 10.0 mi West 5.8 mph - N/A   Overcast
5:55 AM 27.0 °F 20.5 °F 16.0 °F 63% 30.04 in 10.0 mi WNW 5.8 mph - N/A   Scattered Clouds
6:15 AM 26.8 °F 20.2 °F 15.1 °F 61% 30.04 in 10.0 mi WNW 5.8 mph - N/A   Clear
6:35 AM 26.8 °F 19.3 °F 14.9 °F 61% 30.05 in 10.0 mi WNW 6.9 mph - N/A   Clear
6:55 AM 27.3 °F 18.4 °F 13.8 °F 57% 30.05 in 10.0 mi NW 9.2 mph 16.1 mph N/A   Clear
7:15 AM 27.5 °F 19.3 °F 13.5 °F 56% 30.06 in 10.0 mi WNW 8.1 mph - N/A   Clear
7:35 AM 27.7 °F 18.8 °F 14.0 °F 57% 30.06 in 10.0 mi NW 9.2 mph - N/A   Clear
7:55 AM 29.8 °F 20.3 °F 14.0 °F 52% 30.06 in 10.0 mi NW 11.5 mph - N/A   Mostly Cloudy
8:15 AM 28.4 °F 18.0 °F 13.5 °F 54% 30.06 in 10.0 mi WNW 12.7 mph 21.9 mph N/A   Overcast
8:35 AM 28.4 °F 19.7 °F 14.0 °F 55% 30.07 in 10.0 mi WNW 9.2 mph - N/A   Overcast
8:55 AM 28.9 °F 18.6 °F 14.2 °F 54% 30.07 in 10.0 mi NW 12.7 mph 21.9 mph N/A   Overcast
9:15 AM 29.1 °F 20.0 °F 13.6 °F 52% 30.08 in 10.0 mi WNW 10.4 mph 20.7 mph N/A   Overcast
9:35 AM 29.5 °F 20.4 °F 13.8 °F 52% 30.08 in 10.0 mi WNW 10.4 mph 17.3 mph N/A   Overcast
9:55 AM 31.1 °F 21.9 °F 14.5 °F 50% 30.09 in 10.0 mi NW 11.5 mph 19.6 mph N/A   Overcast
10:15 AM 31.5 °F 20.9 °F 12.9 °F 46% 30.08 in 10.0 mi NW 15.0 mph 21.9 mph N/A   Scattered Clouds
10:35 AM 32.0 °F 24.8 °F 12.9 °F 45% 30.09 in 10.0 mi WNW 8.1 mph 21.9 mph N/A   Clear
10:55 AM 32.0 °F 22.1 °F 13.1 °F 46% 30.09 in 10.0 mi NW 13.8 mph 21.9 mph N/A   Mostly Cloudy
11:15 AM 32.7 °F 26.4 °F 13.3 °F 45% 30.09 in 10.0 mi WNW 6.9 mph 18.4 mph N/A   Scattered Clouds
11:35 AM 33.1 °F 23.9 °F 13.5 °F 44% 30.09 in 10.0 mi WNW 12.7 mph 19.6 mph N/A   Scattered Clouds
11:55 AM 34.2 °F 26.8 °F 12.9 °F 42% 30.09 in 10.0 mi WNW 9.2 mph 20.7 mph N/A   Scattered Clouds
12:15 PM 36.1 °F 29.3 °F 13.8 °F 40% 30.09 in 10.0 mi NW 9.2 mph 21.9 mph N/A   Scattered Clouds
12:35 PM 34.3 °F 26.5 °F 13.1 °F 42% 30.09 in 10.0 mi NW 10.4 mph - N/A   Mostly Cloudy
12:55 PM 34.7 °F 25.5 °F 13.5 °F 42% 30.09 in 10.0 mi NW 13.8 mph 17.3 mph N/A   Overcast
1:15 PM 35.1 °F 27.4 °F 13.5 °F 41% 30.09 in 10.0 mi NNW 10.4 mph 18.4 mph N/A   Overcast
1:35 PM 35.1 °F 27.4 °F 12.9 °F 40% 30.10 in 10.0 mi NW 10.4 mph 19.6 mph N/A   Overcast
2:15 PM 35.4 °F 26.8 °F 13.8 °F 41% 30.10 in 10.0 mi NNW 12.7 mph 23.0 mph N/A   Overcast
2:35 PM 35.6 °F 27.5 °F 13.8 °F 41% 30.10 in 10.0 mi NW 11.5 mph 19.6 mph N/A   Overcast
2:55 PM 36.1 °F 28.7 °F 13.8 °F 40% 30.10 in 10.0 mi NNW 10.4 mph 19.6 mph N/A   Overcast
3:15 PM 36.5 °F 28.2 °F 13.6 °F 39% 30.10 in 10.0 mi NNW 12.7 mph 18.4 mph N/A   Overcast
3:35 PM 36.7 °F 27.6 °F 13.1 °F 38% 30.10 in 10.0 mi NNW 15.0 mph - N/A   Overcast
3:55 PM 36.9 °F 29.1 °F 13.3 °F 38% 30.10 in 10.0 mi WNW 11.5 mph 19.6 mph N/A   Overcast
4:15 PM 38.1 °F 29.8 °F 14.4 °F 38% 30.11 in 10.0 mi NNW 13.8 mph 20.7 mph N/A   Mostly Cloudy
4:35 PM 37.0 °F 29.8 °F 13.8 °F 39% 30.11 in 10.0 mi WNW 10.4 mph 16.1 mph N/A   Scattered Clouds
4:55 PM 37.4 °F 28.9 °F 14.0 °F 38% 30.11 in 10.0 mi NNW 13.8 mph 18.4 mph N/A   Scattered Clouds
5:15 PM 37.6 °F 31.6 °F 14.0 °F 38% 30.11 in 10.0 mi WNW 8.1 mph 18.4 mph N/A   Clear
5:35 PM 37.8 °F 29.8 °F 14.4 °F 38% 30.11 in 10.0 mi NW 12.7 mph 19.6 mph N/A   Clear
5:55 PM 37.6 °F 31.6 °F 14.2 °F 38% 30.11 in 10.0 mi WNW 8.1 mph - N/A   Clear
6:15 PM 37.6 °F 31.0 °F 14.7 °F 39% 30.11 in 10.0 mi NW 9.2 mph - N/A   Clear
6:35 PM 37.0 °F 31.0 °F 14.4 °F 40% 30.11 in 10.0 mi NW 8.1 mph 17.3 mph N/A   Clear
6:55 PM 36.9 °F 30.1 °F 14.4 °F 40% 30.11 in 10.0 mi NW 9.2 mph - N/A   Clear
7:15 PM 36.5 °F 31.0 °F 14.9 °F 41% 30.11 in 10.0 mi WNW 6.9 mph - N/A   Clear
7:35 PM 35.6 °F 31.7 °F 14.9 °F 43% 30.12 in 10.0 mi WNW 4.6 mph - N/A   Clear
7:55 PM 34.7 °F 30.6 °F 15.3 °F 45% 30.13 in 10.0 mi WNW 4.6 mph - N/A   Clear
8:15 PM 34.2 °F 29.0 °F 15.6 °F 47% 30.13 in 10.0 mi WNW 5.8 mph - N/A   Clear
8:35 PM 33.8 °F 27.7 °F 15.4 °F 47% 30.14 in 10.0 mi WNW 6.9 mph - N/A   Clear
8:55 PM 33.1 °F 28.7 °F 15.8 °F 49% 30.15 in 10.0 mi WNW 4.6 mph - N/A   Clear
9:15 PM 32.5 °F 27.1 °F 15.6 °F 50% 30.16 in 10.0 mi WNW 5.8 mph - N/A   Clear
9:35 PM 32.4 °F 27.9 °F 15.6 °F 50% 30.16 in 10.0 mi WNW 4.6 mph - N/A   Clear
9:55 PM 32.0 °F 28.7 °F 15.8 °F 51% 30.16 in 10.0 mi NW 3.5 mph - N/A   Clear
10:15 PM 32.0 °F 28.7 °F 15.8 °F 51% 30.17 in 10.0 mi WNW 3.5 mph - N/A   Clear
10:35 PM 31.8 °F 28.5 °F 16.0 °F 52% 30.17 in 10.0 mi NNW 3.5 mph - N/A   Clear
10:55 PM 31.3 °F 27.9 °F 16.2 °F 54% 30.17 in 10.0 mi NW 3.5 mph - N/A   Clear
11:15 PM 31.1 °F 27.7 °F 16.2 °F 54% 30.18 in 10.0 mi NW 3.5 mph - N/A   Clear